Flag for Czech Republic Weather past 2 weeks in Prague, Czech Republic

Now
82 °F

Passing clouds.


Feels Like: 82 °F
Forecast: 58 / 85 °F
Wind: 7 mph from Northeast

Location: Prague Ruzyne Airport

Current Time: Jul 2, 2015 at 2:45:49 PM

Latest Report: Jul 2, 2015 at 2:00 PM


Visibility: N/A

Pressure: 30.24 "Hg

Humidity: 40%

Dew point: 55 °F

Location of PragueLocation

Historic Weather in Prague — Graph

°F

Prague temperature yesterday

Maximum temperature yesterday: 81 °F (at 2:00 PM)
Minimum temperature yesterday: 55 °F (at 5:00 AM)
Average temperature yesterday: 70 °F

Past Weeks' High & Low Weather Summary

 TemperatureHumidityPressure
High81 °F (Jul 1, 2:00 PM)100% (Jun 25, 2:00 AM)30.27 "Hg (Jun 25, 2:00 AM)
Low45 °F (Jun 25, 1:30 AM)37% (Jun 17, 6:00 PM)29.65 "Hg (Jun 23, 4:30 AM)
Average60 °F70%30.07 "Hg
* Reported Jun 17 1:00 PM — Jul 2 1:30 PM, Prague, Weather by CustomWeather, © 2015

Note: Actual official high and low records may vary slightly from our data, if they occured in-between our weather recording intervals... More about our weather records

Advertising

Prague weather history for previous 24 hours

 ConditionsComfort  
Time TempWeatherWind HumidityBarometerVisibility
1:30 PM
Thu, Jul 2
81 °FSunny.5 mph42%30.27 "Hg10 mi
1:00 PM81 °FSunny.7 mph42%30.27 "Hg10 mi
12:30 PM81 °FPassing clouds.8 mph42%30.27 "HgN/A
12:00 PM79 °FSunny.8 mph45%30.27 "Hg10 mi
11:30 AM79 °FPassing clouds.6 mph45%30.27 "HgN/A
11:00 AM77 °FPassing clouds.6 mph44%30.27 "HgN/A
10:30 AM77 °FPassing clouds.7 mph44%30.27 "HgN/A
10:00 AM75 °FSunny.5 mph50%30.27 "Hg10 mi
9:30 AM73 °FSunny.5 mph50%30.27 "Hg10 mi
9:00 AM72 °FSunny.5 mph53%30.27 "Hg10 mi
8:30 AM70 °FSunny.3 mph60%30.27 "Hg10 mi
8:00 AM68 °FSunny.3 mph60%30.27 "Hg10 mi
7:30 AM66 °FSunny.5 mph68%30.27 "Hg10 mi
7:00 AM64 °FSunny.5 mph73%30.24 "Hg10 mi
6:30 AM63 °FSunny.2 mph77%30.24 "Hg10 mi
6:00 AM61 °FSunny.2 mph77%30.24 "Hg10 mi
5:30 AM59 °FClear.5 mph82%30.24 "Hg10 mi
5:00 AM59 °FClear.3 mph82%30.24 "Hg10 mi
4:30 AM59 °FPassing clouds.3 mph82%30.24 "HgN/A
4:00 AM59 °FClear.2 mph82%30.24 "Hg10 mi
3:30 AM61 °FClear.3 mph77%30.24 "Hg10 mi
3:00 AM61 °FClear.6 mph77%30.24 "Hg10 mi
2:30 AM61 °FClear.5 mph77%30.24 "Hg10 mi
2:00 AM61 °FClear.9 mph77%30.24 "Hg10 mi
1:30 AM66 °FClear.8 mph64%30.21 "Hg10 mi
1:00 AM66 °FClear.12 mph64%30.24 "Hg10 mi
12:30 AM66 °FClear.8 mph64%30.21 "Hg10 mi
12:00 AM66 °FClear.7 mph64%30.21 "Hg10 mi
11:00 PM
Wed, Jul 1
68 °FClear.5 mph60%30.21 "Hg10 mi
10:30 PM70 °FClear.6 mph57%30.21 "Hg10 mi
10:00 PM68 °FSunny.7 mph60%30.21 "Hg10 mi
9:30 PM70 °FSunny.8 mph57%30.18 "Hg10 mi
9:00 PM72 °FSunny.9 mph53%30.18 "Hg10 mi
8:30 PM75 °FSunny.12 mph47%30.18 "Hg10 mi
8:00 PM77 °FSunny.9 mph42%30.18 "Hg10 mi
7:30 PM79 °FSunny.8 mph39%30.18 "Hg10 mi
7:00 PM79 °FSunny.8 mph39%30.18 "Hg10 mi
6:30 PM81 °FPassing clouds.9 mph37%30.18 "HgN/A
6:00 PM81 °FSunny.10 mph39%30.18 "Hg10 mi
5:30 PM81 °FPassing clouds.8 mph39%30.18 "HgN/A
5:00 PM81 °FPassing clouds.8 mph37%30.18 "HgN/A
4:30 PM81 °FPassing clouds.8 mph39%30.18 "HgN/A
4:00 PM81 °FPassing clouds.7 mph39%30.18 "HgN/A
3:30 PM81 °FPassing clouds.5 mph39%30.18 "HgN/A
3:00 PM81 °FSunny.6 mph39%30.18 "Hg10 mi
2:30 PM79 °FPassing clouds.7 mph39%30.21 "HgN/A
2:00 PM81 °FSunny.6 mph39%30.21 "Hg10 mi
Weather by CustomWeather, © 2015

See weather overviewHow to use our weather pages